Regional Weather Roundup
Issued by NWS

Home | Current Version | Previous Version | Text Only | Print | Product List | Glossary Off
Versions: 1 2 3 4 5 6 7 8 9 10 11 12 13 14 15 16 17 18 19 20 21 22 23 24 25 26 27 28 29 30 31 32 33 34 35 36 37 38 39 40 41 42 43 44 45 46 47 48 49 50

000
ASUS43 KBIS 300120
RWRND

NORTH DAKOTA REGIONAL WEATHER ROUNDUP
NATIONAL WEATHER SERVICE BISMARCK ND
800 PM CDT TUE JUL 29 2014

NOTE: "FAIR" INDICATES FEW OR NO CLOUDS BELOW 12,000 FEET WITH NO
SIGNIFICANT WEATHER AND/OR OBSTRUCTIONS TO VISIBILITY.


NDZ001>003-009>011-017-300200-
NORTHWEST NORTH DAKOTA

CITY           SKY/WX    TMP DP  RH WIND       PRES   REMARKS
WILLISTON      SUNNY     81  54  39 N8        30.15S
MINOT          MOSUNNY   74  61  63 CALM      30.13F
MINOT AFB      MOSUNNY   73  63  70 SW3       30.13F
$$

NDZ018>021-031>035-040>046-300200-
SOUTHWEST NORTH DAKOTA

CITY           SKY/WX    TMP DP  RH WIND       PRES   REMARKS
BISMARCK       MOSUNNY   76  57  51 SE7       30.13F
DICKINSON      SUNNY     74  56  53 E8        30.13S
GARRISON         N/A     74  60  61 E3        30.13F
HETTINGER ARPT PTSUNNY   80  52  37 SE6       30.14F
$$

NDZ004>008-012>016-024-026-027-054-300200-
NORTHEAST NORTH DAKOTA

CITY           SKY/WX    TMP DP  RH WIND       PRES   REMARKS
GRAND FORKS    PTCLDY    73  58  59 N5        30.08F
GRND FRKS AFB  CLEAR     73  56  55 N3        30.10F
DEVILS LAKE    SUNNY     72  55  56 NE5       30.11S
$$

NDZ022-023-025-028>030-036>039-047>053-300200-
SOUTHEAST NORTH DAKOTA

CITY           SKY/WX    TMP DP  RH WIND       PRES   REMARKS
FARGO          CLEAR     75  55  49 NE7       30.08F
JAMESTOWN      SUNNY     73  55  53 N5        30.11F
$$



USA.gov is the U.S. government's official web portal to all federal, state and local government web resources and services.